Year,Month,Day,Hour,Minute,Value (Times are PST for temperature in C)
2017,08,15,00,00,13.50
2017,08,15,00,01,13.40
2017,08,15,00,02,13.40
2017,08,15,00,03,13.40
2017,08,15,00,04,13.40
2017,08,15,00,05,13.40
2017,08,15,00,06,13.40
2017,08,15,00,07,13.40
2017,08,15,00,08,13.40
2017,08,15,00,09,13.40
2017,08,15,00,10,13.40
2017,08,15,00,11,13.40
2017,08,15,00,12,13.40
2017,08,15,00,13,13.40
2017,08,15,00,14,13.30
2017,08,15,00,15,13.30
2017,08,15,00,16,13.30
2017,08,15,00,17,13.30
2017,08,15,00,18,13.30
2017,08,15,00,19,13.30
2017,08,15,00,20,13.30
2017,08,15,00,21,13.20
2017,08,15,00,22,13.20
2017,08,15,00,23,13.20
2017,08,15,00,24,13.20
2017,08,15,00,25,13.20
2017,08,15,00,26,13.10
2017,08,15,00,27,13.10
2017,08,15,00,28,13.10
2017,08,15,00,29,13.10
2017,08,15,00,30,13.10
2017,08,15,00,31,13.10
2017,08,15,00,32,13.00
2017,08,15,00,33,13.00
2017,08,15,00,34,13.00
2017,08,15,00,35,12.90
2017,08,15,00,36,12.90
2017,08,15,00,37,12.90
2017,08,15,00,38,12.90
2017,08,15,00,39,12.90
2017,08,15,00,40,12.90
2017,08,15,00,41,12.90
2017,08,15,00,42,12.90
2017,08,15,00,43,12.80
2017,08,15,00,44,12.80
2017,08,15,00,45,12.80
2017,08,15,00,46,12.80
2017,08,15,00,47,12.80
2017,08,15,00,48,12.80
2017,08,15,00,49,12.80
2017,08,15,00,50,12.80
2017,08,15,00,51,12.80
2017,08,15,00,52,12.70
2017,08,15,00,53,12.70
2017,08,15,00,54,12.70
2017,08,15,00,55,12.70
2017,08,15,00,56,12.70
2017,08,15,00,57,12.60
2017,08,15,00,58,12.60
2017,08,15,00,59,12.60
2017,08,15,01,00,12.60
2017,08,15,01,01,12.50
2017,08,15,01,02,12.50
2017,08,15,01,03,12.50
2017,08,15,01,04,12.50
2017,08,15,01,05,12.40
2017,08,15,01,06,12.40
2017,08,15,01,07,12.40
2017,08,15,01,08,12.40
2017,08,15,01,09,12.40
2017,08,15,01,10,12.40
2017,08,15,01,11,12.40
2017,08,15,01,12,12.40
2017,08,15,01,13,12.40
2017,08,15,01,14,12.40
2017,08,15,01,15,12.40
2017,08,15,01,16,12.40
2017,08,15,01,17,12.40
2017,08,15,01,18,12.30
2017,08,15,01,19,12.30
2017,08,15,01,20,12.30
2017,08,15,01,21,12.30
2017,08,15,01,22,12.30
2017,08,15,01,23,12.30
2017,08,15,01,24,12.30
2017,08,15,01,25,12.30
2017,08,15,01,26,12.30
2017,08,15,01,27,12.30
2017,08,15,01,28,12.30
2017,08,15,01,29,12.30
2017,08,15,01,30,12.30
2017,08,15,01,31,12.30
2017,08,15,01,32,12.30
2017,08,15,01,33,12.30
2017,08,15,01,34,12.20
2017,08,15,01,35,12.20
2017,08,15,01,36,12.20
2017,08,15,01,37,12.20
2017,08,15,01,38,12.20
2017,08,15,01,39,12.20
2017,08,15,01,40,12.20
2017,08,15,01,41,12.20
2017,08,15,01,42,12.20
2017,08,15,01,43,12.20
2017,08,15,01,44,12.10
2017,08,15,01,45,12.10
2017,08,15,01,46,12.10
2017,08,15,01,47,12.10
2017,08,15,01,48,12.10
2017,08,15,01,49,12.10
2017,08,15,01,50,12.10
2017,08,15,01,51,12.10
2017,08,15,01,52,12.10
2017,08,15,01,53,12.10
2017,08,15,01,54,12.10
2017,08,15,01,55,12.10
2017,08,15,01,56,12.00
2017,08,15,01,57,12.00
2017,08,15,01,58,12.00
2017,08,15,01,59,12.00
2017,08,15,02,00,12.00
2017,08,15,02,01,12.00
2017,08,15,02,02,12.00
2017,08,15,02,03,12.00
2017,08,15,02,04,12.00
2017,08,15,02,05,12.00
2017,08,15,02,06,12.00
2017,08,15,02,07,11.90
2017,08,15,02,08,11.90
2017,08,15,02,09,11.90
2017,08,15,02,10,11.90
2017,08,15,02,11,11.90
2017,08,15,02,12,11.90
2017,08,15,02,13,11.90
2017,08,15,02,14,11.90
2017,08,15,02,15,11.90
2017,08,15,02,16,11.90
2017,08,15,02,17,11.90
2017,08,15,02,18,11.90
2017,08,15,02,19,12.00
2017,08,15,02,20,12.00
2017,08,15,02,21,12.00
2017,08,15,02,22,11.90
2017,08,15,02,23,12.00
2017,08,15,02,24,12.00
2017,08,15,02,25,12.00
2017,08,15,02,26,12.00
2017,08,15,02,27,12.00
2017,08,15,02,28,12.00
2017,08,15,02,29,12.00
2017,08,15,02,30,12.00
2017,08,15,02,31,12.10
2017,08,15,02,32,12.10
2017,08,15,02,33,12.10
2017,08,15,02,34,12.10
2017,08,15,02,35,12.10
2017,08,15,02,36,12.10
2017,08,15,02,37,12.10
2017,08,15,02,38,12.10
2017,08,15,02,39,12.10
2017,08,15,02,40,12.10
2017,08,15,02,41,12.10
2017,08,15,02,42,12.10
2017,08,15,02,43,12.10
2017,08,15,02,44,12.00
2017,08,15,02,45,12.00
2017,08,15,02,46,12.00
2017,08,15,02,47,12.00
2017,08,15,02,48,12.00
2017,08,15,02,49,12.00
2017,08,15,02,50,12.00
2017,08,15,02,51,12.00
2017,08,15,02,52,12.00
2017,08,15,02,53,12.00
2017,08,15,02,54,12.10
2017,08,15,02,55,12.10
2017,08,15,02,56,12.10
2017,08,15,02,57,12.10
2017,08,15,02,58,12.10
2017,08,15,02,59,12.10
2017,08,15,03,00,12.10
2017,08,15,03,01,12.10
2017,08,15,03,02,12.10
2017,08,15,03,03,12.10
2017,08,15,03,04,12.10
2017,08,15,03,05,12.10
2017,08,15,03,06,12.10
2017,08,15,03,07,12.10
2017,08,15,03,08,12.10
2017,08,15,03,09,12.10
2017,08,15,03,10,12.10
2017,08,15,03,11,12.10
2017,08,15,03,12,12.10
2017,08,15,03,13,12.10
2017,08,15,03,14,12.10
2017,08,15,03,15,12.10
2017,08,15,03,16,12.10
2017,08,15,03,17,12.10
2017,08,15,03,18,12.10
2017,08,15,03,19,12.00
2017,08,15,03,20,12.00
2017,08,15,03,21,12.00
2017,08,15,03,22,12.00
2017,08,15,03,23,11.90
2017,08,15,03,24,11.90
2017,08,15,03,25,11.90
2017,08,15,03,26,11.90
2017,08,15,03,27,11.90
2017,08,15,03,28,11.80
2017,08,15,03,29,11.80
2017,08,15,03,30,11.80
2017,08,15,03,31,11.80
2017,08,15,03,32,11.80
2017,08,15,03,33,11.80
2017,08,15,03,34,11.80
2017,08,15,03,35,11.80
2017,08,15,03,36,11.80
2017,08,15,03,37,11.80
2017,08,15,03,38,11.70
2017,08,15,03,39,11.70
2017,08,15,03,40,11.70
2017,08,15,03,41,11.70
2017,08,15,03,42,11.70
2017,08,15,03,43,11.70
2017,08,15,03,44,11.70
2017,08,15,03,45,11.70
2017,08,15,03,46,11.70
2017,08,15,03,47,11.70
2017,08,15,03,48,11.70
2017,08,15,03,49,11.70
2017,08,15,03,50,11.70
2017,08,15,03,51,11.60
2017,08,15,03,52,11.60
2017,08,15,03,53,11.60
2017,08,15,03,54,11.60
2017,08,15,03,55,11.60
2017,08,15,03,56,11.60
2017,08,15,03,57,11.60
2017,08,15,03,58,11.60
2017,08,15,03,59,11.60
2017,08,15,04,00,11.60
2017,08,15,04,01,11.60
2017,08,15,04,02,11.60
2017,08,15,04,03,11.60
2017,08,15,04,04,11.60
2017,08,15,04,05,11.60
2017,08,15,04,06,11.60
2017,08,15,04,07,11.50
2017,08,15,04,08,11.50
2017,08,15,04,09,11.50
2017,08,15,04,10,11.50
2017,08,15,04,11,11.50
2017,08,15,04,12,11.50
2017,08,15,04,13,11.50
2017,08,15,04,14,11.40
2017,08,15,04,15,11.40
2017,08,15,04,16,11.40
2017,08,15,04,17,11.40
2017,08,15,04,18,11.40
2017,08,15,04,19,11.40
2017,08,15,04,20,11.40
2017,08,15,04,21,11.40
2017,08,15,04,22,11.30
2017,08,15,04,23,11.30
2017,08,15,04,24,11.30
2017,08,15,04,25,11.30
2017,08,15,04,26,11.30
2017,08,15,04,27,11.30
2017,08,15,04,28,11.30
2017,08,15,04,29,11.30
2017,08,15,04,30,11.30
2017,08,15,04,31,11.30
2017,08,15,04,32,11.30
2017,08,15,04,33,11.30
2017,08,15,04,34,11.20
2017,08,15,04,35,11.20
2017,08,15,04,36,11.20
2017,08,15,04,37,11.20
2017,08,15,04,38,11.20
2017,08,15,04,39,11.20
2017,08,15,04,40,11.20
2017,08,15,04,41,11.10
2017,08,15,04,42,11.10
2017,08,15,04,43,11.10
2017,08,15,04,44,11.10
2017,08,15,04,45,11.10
2017,08,15,04,46,11.10
2017,08,15,04,47,11.00
2017,08,15,04,48,11.00
2017,08,15,04,49,11.00
2017,08,15,04,50,11.00
2017,08,15,04,51,11.00
2017,08,15,04,52,10.90
2017,08,15,04,53,10.90
2017,08,15,04,54,10.90
2017,08,15,04,55,10.90
2017,08,15,04,56,10.90
2017,08,15,04,57,10.90
2017,08,15,04,58,10.90
2017,08,15,04,59,10.90
2017,08,15,05,00,10.90
2017,08,15,05,01,10.90
2017,08,15,05,02,10.90
2017,08,15,05,03,10.90
2017,08,15,05,04,10.90
2017,08,15,05,05,10.90
2017,08,15,05,06,10.90
2017,08,15,05,07,10.90
2017,08,15,05,08,10.90
2017,08,15,05,09,10.90
2017,08,15,05,10,10.90
2017,08,15,05,11,10.90
2017,08,15,05,12,10.90
2017,08,15,05,13,10.90
2017,08,15,05,14,10.90
2017,08,15,05,15,10.90
2017,08,15,05,16,10.90
2017,08,15,05,17,10.90
2017,08,15,05,18,10.90
2017,08,15,05,19,10.90
2017,08,15,05,20,10.90
2017,08,15,05,21,10.90
2017,08,15,05,22,10.90
2017,08,15,05,23,10.90
2017,08,15,05,24,10.90
2017,08,15,05,25,10.90
2017,08,15,05,26,10.90
2017,08,15,05,27,10.90
2017,08,15,05,28,10.90
2017,08,15,05,29,10.90
2017,08,15,05,30,10.90
2017,08,15,05,31,10.90
2017,08,15,05,32,10.90
2017,08,15,05,33,10.80
2017,08,15,05,34,10.80
2017,08,15,05,35,10.80
2017,08,15,05,36,10.70
2017,08,15,05,37,10.70
2017,08,15,05,38,10.70
2017,08,15,05,39,10.70
2017,08,15,05,40,10.70
2017,08,15,05,41,10.60
2017,08,15,05,42,10.60
2017,08,15,05,43,10.60
2017,08,15,05,44,10.60
2017,08,15,05,45,10.60
2017,08,15,05,46,10.60
2017,08,15,05,47,10.60
2017,08,15,05,48,10.60
2017,08,15,05,49,10.60
2017,08,15,05,50,10.60
2017,08,15,05,51,10.60
2017,08,15,05,52,10.60
2017,08,15,05,53,10.60
2017,08,15,05,54,10.60
2017,08,15,05,55,10.60
2017,08,15,05,56,10.60
2017,08,15,05,57,10.60
2017,08,15,05,58,10.60
2017,08,15,05,59,10.60
2017,08,15,06,00,10.70
2017,08,15,06,01,10.70
2017,08,15,06,02,10.70
2017,08,15,06,03,10.70
2017,08,15,06,04,10.70
2017,08,15,06,05,10.70
2017,08,15,06,06,10.70
2017,08,15,06,07,10.70
2017,08,15,06,08,10.70
2017,08,15,06,09,10.70
2017,08,15,06,10,10.70
2017,08,15,06,11,10.70
2017,08,15,06,12,10.70
2017,08,15,06,13,10.70
2017,08,15,06,14,10.70
2017,08,15,06,15,10.70
2017,08,15,06,16,10.70
2017,08,15,06,17,10.70
2017,08,15,06,18,10.70
2017,08,15,06,19,10.60
2017,08,15,06,20,10.60
2017,08,15,06,21,10.60
2017,08,15,06,22,10.70
2017,08,15,06,23,10.70
2017,08,15,06,24,10.60
2017,08,15,06,25,10.60
2017,08,15,06,26,10.60
2017,08,15,06,27,10.60
2017,08,15,06,28,10.70
2017,08,15,06,29,10.70
2017,08,15,06,30,10.70
2017,08,15,06,31,10.70
2017,08,15,06,32,10.70
2017,08,15,06,33,10.70
2017,08,15,06,34,10.70
2017,08,15,06,35,10.70
2017,08,15,06,36,10.70
2017,08,15,06,37,10.70
2017,08,15,06,38,10.70
2017,08,15,06,39,10.70
2017,08,15,06,40,10.70
2017,08,15,06,41,10.70
2017,08,15,06,42,10.70
2017,08,15,06,43,10.80
2017,08,15,06,44,10.80
2017,08,15,06,45,10.80
2017,08,15,06,46,10.80
2017,08,15,06,47,10.80
2017,08,15,06,48,10.80
2017,08,15,06,49,10.80
2017,08,15,06,50,10.80
2017,08,15,06,51,10.80
2017,08,15,06,52,10.80
2017,08,15,06,53,10.80
2017,08,15,06,54,10.80
2017,08,15,06,55,10.90
2017,08,15,06,56,10.90
2017,08,15,06,57,10.90
2017,08,15,06,58,10.90
2017,08,15,06,59,10.90
2017,08,15,07,00,10.90
2017,08,15,07,01,10.90
2017,08,15,07,02,11.00
2017,08,15,07,03,11.00
2017,08,15,07,04,11.00
2017,08,15,07,05,11.00
2017,08,15,07,06,11.10
2017,08,15,07,07,11.10
2017,08,15,07,08,11.10
2017,08,15,07,09,11.20
2017,08,15,07,10,11.20
2017,08,15,07,11,11.20
2017,08,15,07,12,11.30
2017,08,15,07,13,11.30
2017,08,15,07,14,11.30
2017,08,15,07,15,11.40
2017,08,15,07,16,11.40
2017,08,15,07,17,11.40
2017,08,15,07,18,11.50
2017,08,15,07,19,11.50
2017,08,15,07,20,11.50
2017,08,15,07,21,11.60
2017,08,15,07,22,11.60
2017,08,15,07,23,11.60
2017,08,15,07,24,11.70
2017,08,15,07,25,11.70
2017,08,15,07,26,11.70
2017,08,15,07,27,11.80
2017,08,15,07,28,11.80
2017,08,15,07,29,11.80
2017,08,15,07,30,11.90
2017,08,15,07,31,11.90
2017,08,15,07,32,11.90
2017,08,15,07,33,12.00
2017,08,15,07,34,12.00
2017,08,15,07,35,12.10
2017,08,15,07,36,12.10
2017,08,15,07,37,12.20
2017,08,15,07,38,12.20
2017,08,15,07,39,12.30
2017,08,15,07,40,12.40
2017,08,15,07,41,12.50
2017,08,15,07,42,12.60
2017,08,15,07,43,12.60
2017,08,15,07,44,12.70
2017,08,15,07,45,12.80
2017,08,15,07,46,12.90
2017,08,15,07,47,13.00
2017,08,15,07,48,13.00
2017,08,15,07,49,13.10
2017,08,15,07,50,13.20
2017,08,15,07,51,13.20
2017,08,15,07,52,13.30
2017,08,15,07,53,13.50
2017,08,15,07,54,13.60
2017,08,15,07,55,13.80
2017,08,15,07,56,13.90
2017,08,15,07,57,14.10
2017,08,15,07,58,14.30
2017,08,15,07,59,14.50
2017,08,15,08,00,14.60
2017,08,15,08,01,14.80
2017,08,15,08,02,14.90
2017,08,15,08,03,15.00
2017,08,15,08,04,15.10
2017,08,15,08,05,15.30
2017,08,15,08,06,15.40
2017,08,15,08,07,15.50
2017,08,15,08,08,15.60
2017,08,15,08,09,15.70
2017,08,15,08,10,15.80
2017,08,15,08,11,15.90
2017,08,15,08,12,16.00
2017,08,15,08,13,16.10
2017,08,15,08,14,16.10
2017,08,15,08,15,16.20
2017,08,15,08,16,16.20
2017,08,15,08,17,16.30
2017,08,15,08,18,16.40
2017,08,15,08,19,16.50
2017,08,15,08,20,16.50
2017,08,15,08,21,16.60
2017,08,15,08,22,16.70
2017,08,15,08,23,16.70
2017,08,15,08,24,16.80
2017,08,15,08,25,16.80
2017,08,15,08,26,16.90
2017,08,15,08,27,16.90
2017,08,15,08,28,17.00
2017,08,15,08,29,17.00
2017,08,15,08,30,17.10
2017,08,15,08,31,17.10
2017,08,15,08,32,17.20
2017,08,15,08,33,17.20
2017,08,15,08,34,17.20
2017,08,15,08,35,17.30
2017,08,15,08,36,17.30
2017,08,15,08,37,17.40
2017,08,15,08,38,17.40
2017,08,15,08,39,17.50
2017,08,15,08,40,17.60
2017,08,15,08,41,17.60
2017,08,15,08,42,17.60
2017,08,15,08,43,17.60
2017,08,15,08,44,17.70
2017,08,15,08,45,17.70
2017,08,15,08,46,17.70
2017,08,15,08,47,17.70
2017,08,15,08,48,17.70
2017,08,15,08,49,17.80
2017,08,15,08,50,17.80
2017,08,15,08,51,17.80
2017,08,15,08,52,17.90
2017,08,15,08,53,17.90
2017,08,15,08,54,17.90
2017,08,15,08,55,17.90
2017,08,15,08,56,18.00
2017,08,15,08,57,18.00
2017,08,15,08,58,18.10
2017,08,15,08,59,18.10
2017,08,15,09,00,18.10
2017,08,15,09,01,18.10
2017,08,15,09,02,18.10
2017,08,15,09,03,18.10
2017,08,15,09,04,18.20
2017,08,15,09,05,18.20
2017,08,15,09,06,18.20
2017,08,15,09,07,18.20
2017,08,15,09,08,18.20
2017,08,15,09,09,18.20
2017,08,15,09,10,18.20
2017,08,15,09,11,18.30
2017,08,15,09,12,18.30
2017,08,15,09,13,18.30
2017,08,15,09,14,18.30
2017,08,15,09,15,18.40
2017,08,15,09,16,18.40
2017,08,15,09,17,18.40
2017,08,15,09,18,18.40
2017,08,15,09,19,18.40
2017,08,15,09,20,18.40
2017,08,15,09,21,18.40
2017,08,15,09,22,18.40
2017,08,15,09,23,18.50
2017,08,15,09,24,18.50
2017,08,15,09,25,18.60
2017,08,15,09,26,18.60
2017,08,15,09,27,18.60
2017,08,15,09,28,18.60
2017,08,15,09,29,18.70
2017,08,15,09,30,18.60
2017,08,15,09,31,18.60
2017,08,15,09,32,18.60
2017,08,15,09,33,18.70
2017,08,15,09,34,18.70
2017,08,15,09,35,18.60
2017,08,15,09,36,18.70
2017,08,15,09,37,18.70
2017,08,15,09,38,18.80
2017,08,15,09,39,18.80
2017,08,15,09,40,18.90
2017,08,15,09,41,18.90
2017,08,15,09,42,18.90
2017,08,15,09,43,18.90
2017,08,15,09,44,18.90
2017,08,15,09,45,19.00
2017,08,15,09,46,19.10
2017,08,15,09,47,19.10
2017,08,15,09,48,19.20
2017,08,15,09,49,19.20
2017,08,15,09,50,19.20
2017,08,15,09,51,19.20
2017,08,15,09,52,19.30
2017,08,15,09,53,19.30
2017,08,15,09,54,19.40
2017,08,15,09,55,19.50
2017,08,15,09,56,19.50
2017,08,15,09,57,19.60
2017,08,15,09,58,19.70
2017,08,15,09,59,19.70
2017,08,15,10,00,19.80
2017,08,15,10,01,19.80
2017,08,15,10,02,19.80
2017,08,15,10,03,19.80
2017,08,15,10,04,19.80
2017,08,15,10,05,19.80
2017,08,15,10,06,19.90
2017,08,15,10,07,20.00
2017,08,15,10,08,20.10
2017,08,15,10,09,20.10
2017,08,15,10,10,20.10
2017,08,15,10,11,20.10
2017,08,15,10,12,20.20
2017,08,15,10,13,20.20
2017,08,15,10,14,20.20
2017,08,15,10,15,20.20
2017,08,15,10,16,20.20
2017,08,15,10,17,20.20
2017,08,15,10,18,20.20
2017,08,15,10,19,20.20
2017,08,15,10,20,20.20
2017,08,15,10,21,20.20
2017,08,15,10,22,20.20
2017,08,15,10,23,20.20
2017,08,15,10,24,20.20
2017,08,15,10,25,20.30
2017,08,15,10,26,20.40
2017,08,15,10,27,20.50
2017,08,15,10,28,20.60
2017,08,15,10,29,20.70
2017,08,15,10,30,20.80
2017,08,15,10,31,20.90
2017,08,15,10,32,21.00
2017,08,15,10,33,21.10
2017,08,15,10,34,21.20
2017,08,15,10,35,21.20
2017,08,15,10,36,21.30
2017,08,15,10,37,21.30
2017,08,15,10,38,21.30
2017,08,15,10,39,21.30
2017,08,15,10,40,21.20
2017,08,15,10,41,21.10
2017,08,15,10,42,21.10
2017,08,15,10,43,21.00
2017,08,15,10,44,20.90
2017,08,15,10,45,20.90
2017,08,15,10,46,20.90
2017,08,15,10,47,20.80
2017,08,15,10,48,20.90
2017,08,15,10,49,21.00
2017,08,15,10,50,21.00
2017,08,15,10,51,21.00
2017,08,15,10,52,21.10
2017,08,15,10,53,21.20
2017,08,15,10,54,21.20
2017,08,15,10,55,21.30
2017,08,15,10,56,21.30
2017,08,15,10,57,21.30
2017,08,15,10,58,21.30
2017,08,15,10,59,21.30
2017,08,15,11,00,21.30
2017,08,15,11,01,21.30
2017,08,15,11,02,21.30
2017,08,15,11,03,21.30
2017,08,15,11,04,21.20
2017,08,15,11,05,21.20
2017,08,15,11,06,21.20
2017,08,15,11,07,21.20
2017,08,15,11,08,21.20
2017,08,15,11,09,21.30
2017,08,15,11,10,21.40
2017,08,15,11,11,21.50
2017,08,15,11,12,21.50
2017,08,15,11,13,21.60
2017,08,15,11,14,21.70
2017,08,15,11,15,21.70
2017,08,15,11,16,21.80
2017,08,15,11,17,21.80
2017,08,15,11,18,21.80
2017,08,15,11,19,21.90
2017,08,15,11,20,21.90
2017,08,15,11,21,21.90
2017,08,15,11,22,21.80
2017,08,15,11,23,21.70
2017,08,15,11,24,21.60
2017,08,15,11,25,21.70
2017,08,15,11,26,21.70
2017,08,15,11,27,21.70
2017,08,15,11,28,21.70
2017,08,15,11,29,21.70
2017,08,15,11,30,21.80
2017,08,15,11,31,21.80
2017,08,15,11,32,21.80
2017,08,15,11,33,21.90
2017,08,15,11,34,21.80
2017,08,15,11,35,21.70
2017,08,15,11,36,21.60
2017,08,15,11,37,21.40
2017,08,15,11,38,21.30
2017,08,15,11,39,21.20
2017,08,15,11,40,21.10
2017,08,15,11,41,21.10
2017,08,15,11,42,21.10
2017,08,15,11,43,21.10
2017,08,15,11,44,21.00
2017,08,15,11,45,20.90
2017,08,15,11,46,20.90
2017,08,15,11,47,21.00
2017,08,15,11,48,21.00
2017,08,15,11,49,21.10
2017,08,15,11,50,21.20
2017,08,15,11,51,21.30
2017,08,15,11,52,21.30
2017,08,15,11,53,21.40
2017,08,15,11,54,21.50
2017,08,15,11,55,21.60
2017,08,15,11,56,21.70
2017,08,15,11,57,21.80
2017,08,15,11,58,21.90
2017,08,15,11,59,21.90
2017,08,15,12,00,22.00
2017,08,15,12,01,22.10
2017,08,15,12,02,22.20
2017,08,15,12,03,22.20
2017,08,15,12,04,22.20
2017,08,15,12,05,22.30
2017,08,15,12,06,22.30
2017,08,15,12,07,22.30
2017,08,15,12,08,22.40
2017,08,15,12,09,22.40
2017,08,15,12,10,22.50
2017,08,15,12,11,22.60
2017,08,15,12,12,22.60
2017,08,15,12,13,22.60
2017,08,15,12,14,22.70
2017,08,15,12,15,22.70
2017,08,15,12,16,22.70
2017,08,15,12,17,22.70
2017,08,15,12,18,22.60
2017,08,15,12,19,22.60
2017,08,15,12,20,22.60
2017,08,15,12,21,22.70
2017,08,15,12,22,22.80
2017,08,15,12,23,22.80
2017,08,15,12,24,22.90
2017,08,15,12,25,22.90
2017,08,15,12,26,22.80
2017,08,15,12,27,22.70
2017,08,15,12,28,22.60
2017,08,15,12,29,22.60
2017,08,15,12,30,22.60
2017,08,15,12,31,22.70
2017,08,15,12,32,22.70
2017,08,15,12,33,22.60
2017,08,15,12,34,22.60
2017,08,15,12,35,22.60
2017,08,15,12,36,22.60
2017,08,15,12,37,22.60
2017,08,15,12,38,22.60
2017,08,15,12,39,22.60
2017,08,15,12,40,22.60
2017,08,15,12,41,22.60
2017,08,15,12,42,22.60
2017,08,15,12,43,22.70
2017,08,15,12,44,22.70
2017,08,15,12,45,22.80
2017,08,15,12,46,22.80
2017,08,15,12,47,22.80
2017,08,15,12,48,22.90
2017,08,15,12,49,23.00
2017,08,15,12,50,23.10
2017,08,15,12,51,23.20
2017,08,15,12,52,23.30
2017,08,15,12,53,23.30
2017,08,15,12,54,23.40
2017,08,15,12,55,23.40
2017,08,15,12,56,23.40
2017,08,15,12,57,23.40
2017,08,15,12,58,23.40
2017,08,15,12,59,23.30
2017,08,15,13,00,23.20
2017,08,15,13,01,23.10
2017,08,15,13,02,23.10
2017,08,15,13,03,23.10
2017,08,15,13,04,23.10
2017,08,15,13,05,23.10
2017,08,15,13,06,23.10
2017,08,15,13,07,23.20
2017,08,15,13,08,23.10
2017,08,15,13,09,22.90
2017,08,15,13,10,22.80
2017,08,15,13,11,22.80
2017,08,15,13,12,22.80
2017,08,15,13,13,22.80
2017,08,15,13,14,22.70
2017,08,15,13,15,22.70
2017,08,15,13,16,22.60
2017,08,15,13,17,22.60
2017,08,15,13,18,22.60
2017,08,15,13,19,22.70
2017,08,15,13,20,22.80
2017,08,15,13,21,22.80
2017,08,15,13,22,22.80
2017,08,15,13,23,22.80
2017,08,15,13,24,22.80
2017,08,15,13,25,22.70
2017,08,15,13,26,22.70
2017,08,15,13,27,22.60
2017,08,15,13,28,22.40
2017,08,15,13,29,22.30
2017,08,15,13,30,22.20
2017,08,15,13,31,22.20
2017,08,15,13,32,22.20
2017,08,15,13,33,22.20
2017,08,15,13,34,22.20
2017,08,15,13,35,22.20
2017,08,15,13,36,22.20
2017,08,15,13,37,22.20
2017,08,15,13,38,22.20
2017,08,15,13,39,22.30
2017,08,15,13,40,22.30
2017,08,15,13,41,22.30
2017,08,15,13,42,22.30
2017,08,15,13,43,22.30
2017,08,15,13,44,22.20
2017,08,15,13,45,22.20
2017,08,15,13,46,22.10
2017,08,15,13,47,22.10
2017,08,15,13,48,22.10
2017,08,15,13,49,22.10
2017,08,15,13,50,22.10
2017,08,15,13,51,22.00
2017,08,15,13,52,21.90
2017,08,15,13,53,22.00
2017,08,15,13,54,22.10
2017,08,15,13,55,22.10
2017,08,15,13,56,22.10
2017,08,15,13,57,22.00
2017,08,15,13,58,21.90
2017,08,15,13,59,21.80
2017,08,15,14,00,21.70
2017,08,15,14,01,21.70
2017,08,15,14,02,21.80
2017,08,15,14,03,21.80
2017,08,15,14,04,21.90
2017,08,15,14,05,21.90
2017,08,15,14,06,21.90
2017,08,15,14,07,21.90
2017,08,15,14,08,22.00
2017,08,15,14,09,22.10
2017,08,15,14,10,22.20
2017,08,15,14,11,22.40
2017,08,15,14,12,22.50
2017,08,15,14,13,22.70
2017,08,15,14,14,22.80
2017,08,15,14,15,22.90
2017,08,15,14,16,23.00
2017,08,15,14,17,23.10
2017,08,15,14,18,23.20
2017,08,15,14,19,23.30
2017,08,15,14,20,23.30
2017,08,15,14,21,23.30
2017,08,15,14,22,23.30
2017,08,15,14,23,23.30
2017,08,15,14,24,23.30
2017,08,15,14,25,23.20
2017,08,15,14,26,23.20
2017,08,15,14,27,23.10
2017,08,15,14,28,22.90
2017,08,15,14,29,22.60
2017,08,15,14,30,22.30
2017,08,15,14,31,22.10
2017,08,15,14,32,22.00
2017,08,15,14,33,22.00
2017,08,15,14,34,22.10
2017,08,15,14,35,22.10
2017,08,15,14,36,22.20
2017,08,15,14,37,22.20
2017,08,15,14,38,22.20
2017,08,15,14,39,22.20
2017,08,15,14,40,22.20
2017,08,15,14,41,22.20
2017,08,15,14,42,22.30
2017,08,15,14,43,22.30
2017,08,15,14,44,22.30
2017,08,15,14,45,22.30
2017,08,15,14,46,22.30
2017,08,15,14,47,22.20
2017,08,15,14,48,22.20
2017,08,15,14,49,22.20
2017,08,15,14,50,22.20
2017,08,15,14,51,22.30
2017,08,15,14,52,22.30
2017,08,15,14,53,22.30
2017,08,15,14,54,22.30
2017,08,15,14,55,22.30
2017,08,15,14,56,22.20
2017,08,15,14,57,22.20
2017,08,15,14,58,22.10
2017,08,15,14,59,22.10
2017,08,15,15,00,22.10
2017,08,15,15,01,22.20
2017,08,15,15,02,22.20
2017,08,15,15,03,22.20
2017,08,15,15,04,22.30
2017,08,15,15,05,22.30
2017,08,15,15,06,22.30
2017,08,15,15,07,22.30
2017,08,15,15,08,22.20
2017,08,15,15,09,22.20
2017,08,15,15,10,22.20
2017,08,15,15,11,22.10
2017,08,15,15,12,22.00
2017,08,15,15,13,21.90
2017,08,15,15,14,21.90
2017,08,15,15,15,21.90
2017,08,15,15,16,21.90
2017,08,15,15,17,21.90
2017,08,15,15,18,21.80
2017,08,15,15,19,21.80
2017,08,15,15,20,21.80
2017,08,15,15,21,21.80
2017,08,15,15,22,21.90
2017,08,15,15,23,21.90
2017,08,15,15,24,21.90
2017,08,15,15,25,22.00
2017,08,15,15,26,22.00
2017,08,15,15,27,22.10
2017,08,15,15,28,22.10
2017,08,15,15,29,22.10
2017,08,15,15,30,22.10
2017,08,15,15,31,22.10
2017,08,15,15,32,22.00
2017,08,15,15,33,22.00
2017,08,15,15,34,22.00
2017,08,15,15,35,22.10
2017,08,15,15,36,22.10
2017,08,15,15,37,22.10
2017,08,15,15,38,22.10
2017,08,15,15,39,22.10
2017,08,15,15,40,22.00
2017,08,15,15,41,21.90
2017,08,15,15,42,21.80
2017,08,15,15,43,21.80
2017,08,15,15,44,21.70
2017,08,15,15,45,21.70
2017,08,15,15,46,21.70
2017,08,15,15,47,21.70
2017,08,15,15,48,21.60
2017,08,15,15,49,21.60
2017,08,15,15,50,21.60
2017,08,15,15,51,21.60
2017,08,15,15,52,21.60
2017,08,15,15,53,21.50
2017,08,15,15,54,21.40
2017,08,15,15,55,21.30
2017,08,15,15,56,21.20
2017,08,15,15,57,21.20
2017,08,15,15,58,21.10
2017,08,15,15,59,21.00
2017,08,15,16,00,20.90
2017,08,15,16,01,20.90
2017,08,15,16,02,20.80
2017,08,15,16,03,20.80
2017,08,15,16,04,20.80
2017,08,15,16,05,20.90
2017,08,15,16,06,20.90
2017,08,15,16,07,20.90
2017,08,15,16,08,20.80
2017,08,15,16,09,20.80
2017,08,15,16,10,20.80
2017,08,15,16,11,20.80
2017,08,15,16,12,20.90
2017,08,15,16,13,20.90
2017,08,15,16,14,21.00
2017,08,15,16,15,20.90
2017,08,15,16,16,20.90
2017,08,15,16,17,20.90
2017,08,15,16,18,20.80
2017,08,15,16,19,20.80
2017,08,15,16,20,20.80
2017,08,15,16,21,20.80
2017,08,15,16,22,20.80
2017,08,15,16,23,20.80
2017,08,15,16,24,20.70
2017,08,15,16,25,20.70
2017,08,15,16,26,20.70
2017,08,15,16,27,20.70
2017,08,15,16,28,20.70
2017,08,15,16,29,20.70
2017,08,15,16,30,20.80
2017,08,15,16,31,20.80
2017,08,15,16,32,20.90
2017,08,15,16,33,20.90
2017,08,15,16,34,20.90
2017,08,15,16,35,21.00
2017,08,15,16,36,21.00
2017,08,15,16,37,21.10
2017,08,15,16,38,21.10
2017,08,15,16,39,21.10
2017,08,15,16,40,20.90
2017,08,15,16,41,20.80
2017,08,15,16,42,20.50
2017,08,15,16,43,20.40
2017,08,15,16,44,20.20
2017,08,15,16,45,20.00
2017,08,15,16,46,19.90
2017,08,15,16,47,19.80
2017,08,15,16,48,19.90
2017,08,15,16,49,19.90
2017,08,15,16,50,19.90
2017,08,15,16,51,19.90
2017,08,15,16,52,19.90
2017,08,15,16,53,19.90
2017,08,15,16,54,19.90
2017,08,15,16,55,20.00
2017,08,15,16,56,20.00
2017,08,15,16,57,20.10
2017,08,15,16,58,20.10
2017,08,15,16,59,20.00
2017,08,15,17,00,20.00
2017,08,15,17,01,20.00
2017,08,15,17,02,20.00
2017,08,15,17,03,19.90
2017,08,15,17,04,19.90
2017,08,15,17,05,19.80
2017,08,15,17,06,19.80
2017,08,15,17,07,19.80
2017,08,15,17,08,19.70
2017,08,15,17,09,19.70
2017,08,15,17,10,19.70
2017,08,15,17,11,19.70
2017,08,15,17,12,19.70
2017,08,15,17,13,19.80
2017,08,15,17,14,19.80
2017,08,15,17,15,19.80
2017,08,15,17,16,19.90
2017,08,15,17,17,19.90
2017,08,15,17,18,19.90
2017,08,15,17,19,19.90